Change the Weather History Date:

Wednesday, July 25, 2012

  Actual Average Record
Temperature  
Mean Temperature 86 °F 82 °F  
Max Temperature 97 °F 92 °F 97 °F (2012)
Min Temperature 75 °F 73 °F 69 °F (2007)
Degree Days  
Heating Degree Days 0    
Month to date heating degree days  
Since 1 June heating degree days  
Since 1 July heating degree days  
Cooling Degree Days 21    
Month to date cooling degree days 444  
Year to date cooling degree days 1608  
Since 1 June cooling degree days 881  
Growing Degree Days 36 (Base 50)    
Moisture  
Dew Point 72 °F    
Average Humidity 71    
Maximum Humidity 94    
Minimum Humidity 48    
Precipitation  
Precipitation 0.06 in 0.15 in 1.14 in (1999)
Month to date precipitation 1.38 4.23  
Year to date precipitation 32.56 32.02  
Sea Level Pressure  
Sea Level Pressure 29.97 in    
Wind  
Wind Speed 7 mph (WSW)    
Max Wind Speed 25 mph    
Max Gust Speed 36 mph    
Visibility 9 miles    
Events Rain , Thunderstorm    
T = Trace of Precipitation, MM = Missing Value Source: NWS Daily Summary

Daily Weather History Graph

Daily Weather History Graph

Search for Another Location

Airport or City:

Trip Planner

Search our weather history database for the weather conditions in past years. The results will help you decide how hot, cold, wet, or windy it might be!

Date:

Astronomy

Jul. 25, 2012 Rise Set
Actual Time 5:54 AM CDT 7:39 PM CDT
Civil Twilight 5:27 AM CDT 8:06 PM CDT
Nautical Twilight 4:55 AM CDT 8:38 PM CDT
Astronomical Twilight 4:21 AM CDT 9:12 PM CDT
Moon 12:24 PM CDT (7/25) 11:40 PM CDT (7/25)
Length of Visible Light 14h 38m
Length of Day
13h 45m
Waxing Crescent, 42% of the Moon is Illuminated
Jul 25
Waxing Crescent
Jul 26
First Quarter
Aug 1
Full
Aug 9
Last Quarter
Aug 17
New

Hourly Weather History & Observations

Time (CDT) Temp. Heat Index Dew Point Humidity Pressure Visibility Wind Dir Wind Speed Gust Speed Precip Events Conditions
12:53 AM 78.1 °F - 72.0 °F 81% 29.99 in 10.0 mi Calm Calm - N/A   Partly Cloudy
1:53 AM 77.0 °F - 72.0 °F 84% 29.97 in 10.0 mi SW 4.6 mph - N/A   Clear
2:53 AM 75.9 °F - 72.0 °F 87% 29.97 in 10.0 mi SW 4.6 mph - N/A   Clear
3:53 AM 75.9 °F - 72.0 °F 87% 29.96 in 9.0 mi WSW 3.5 mph - N/A   Clear
4:53 AM 75.0 °F - 73.0 °F 94% 29.97 in 8.0 mi WSW 4.6 mph - N/A   Clear
5:53 AM 75.9 °F - 73.0 °F 91% 29.98 in 7.0 mi Calm Calm - N/A   Clear
6:53 AM 77.0 °F - 73.0 °F 88% 29.99 in 7.0 mi WNW 4.6 mph - N/A   Clear
7:53 AM 82.0 °F 87.9 °F 73.9 °F 76% 29.99 in 10.0 mi NNW 5.8 mph - N/A   Clear
8:53 AM 88.0 °F 96.5 °F 73.9 °F 63% 30.00 in 10.0 mi NNW 10.4 mph - N/A   Clear
9:53 AM 91.9 °F 100.7 °F 73.0 °F 54% 29.99 in 10.0 mi North 12.7 mph - N/A   Clear
10:53 AM 93.9 °F 103.4 °F 73.0 °F 51% 30.00 in 10.0 mi Variable 5.8 mph - N/A   Clear
11:53 AM 97.0 °F 107.0 °F 73.0 °F 46% 30.01 in 10.0 mi Variable 3.5 mph - N/A   Partly Cloudy
12:53 PM 93.9 °F 102.1 °F 72.0 °F 49% 29.98 in 10.0 mi WNW 3.5 mph - N/A Thunderstorm Scattered Clouds
1:53 PM 82.9 °F 85.8 °F 68.0 °F 60% 29.96 in 1.8 mi SW 23.0 mph 35.7 mph 0.06 in Rain , Thunderstorm Heavy Thunderstorms and Rain
1:58 PM 80.6 °F 83.9 °F 69.8 °F 70% 29.97 in 4.0 mi SW 13.8 mph 35.7 mph 0.00 in Rain , Thunderstorm Light Thunderstorms and Rain
2:53 PM 82.9 °F 88.0 °F 72.0 °F 69% 29.97 in 10.0 mi North 11.5 mph - 0.00 in Thunderstorm Scattered Clouds
3:30 PM 84.2 °F 88.4 °F 69.8 °F 62% 29.95 in 10.0 mi NW 9.2 mph - 0.00 in Rain Light Rain
3:53 PM 86.0 °F 91.5 °F 71.1 °F 61% 29.94 in 10.0 mi SW 4.6 mph - 0.00 in   Scattered Clouds
4:53 PM 89.1 °F 98.0 °F 73.9 °F 61% 29.96 in 10.0 mi SSW 3.5 mph - N/A   Clear
5:53 PM 86.0 °F 93.8 °F 73.9 °F 67% 29.95 in 10.0 mi South 9.2 mph - N/A   Partly Cloudy
6:53 PM 82.9 °F 88.8 °F 73.0 °F 72% 29.95 in 10.0 mi SSE 4.6 mph - N/A   Clear
7:53 PM 81.0 °F 85.8 °F 73.0 °F 77% 29.96 in 10.0 mi South 8.1 mph - N/A   Clear
8:53 PM 79.0 °F - 73.0 °F 82% 29.95 in 10.0 mi South 9.2 mph - N/A   Clear
9:53 PM 78.1 °F - 73.0 °F 84% 29.95 in 10.0 mi SSW 3.5 mph - N/A   Clear
10:53 PM 78.1 °F - 73.0 °F 84% 29.96 in 10.0 mi South 5.8 mph - N/A   Clear
11:53 PM 77.0 °F - 73.0 °F 88% 29.95 in 10.0 mi SW 5.8 mph - N/A   Clear